SL-14 DEB, 45297

Orbit data source: Space-Track

SL-14 DEB, 45297 is space debris in LEO originally from a launch on Thu, 15 Aug 1991 UTC launched from the Plesetsk Missile And Space Complex (PKMTR). Debris objects in space refer to the collection of defunct objects orbiting the Earth. Examples of debris include non-operational satellites, rocket bodies, and fragments generated from explosions, collisions, or faulty payload assembly.

Loading next visibility...
Identifier
45297, 1991-056AK
Orbit
LEO
Country
Flag of CISCIS
Related business
Manufacturer
Unknown
Mission
Spacecraft
Bus & Motor
Unknown
Mass
Unknown
Launch date (UTC)
1991-08-15 (34 years ago)
Launch vehicle
Unknown
Launch site
Plesetsk Missile And Space Complex (PKMTR)
Object type
Payload
Rocket body
Debris
Shape & HBR
Unknown shape, 0.1 m
Radar Cross Section
Small (<0.1 m²)

Expand to show TLE details & history
Last TLE update: 1 day ago

TLE from 1 day ago
0 SL-14 DEB
1 45297U 91056AK  25305.78522887  .00008406  00000-0  20505-1 0  9991
2 45297  82.6230 334.2191 0100085 220.9782 138.3792 13.19409890272724
Epoch: 2025-11-01T18:50Z
TLE epoch observation values (Epoch: 2025-11-01T18:50:43.774Z)
Latitude
0.00004°
Longitude
10.22639°
Altitude
1,246.73 km
Speed
7.204 km/s
True Right ascension
22h 16m 52s
True Declination
0° 00' 00"
Sunlit
Object was in daylight at epoch
Visualization orbit readout
Latitude
Unknown
Longitude
Unknown
Altitude
Unknown
Speed
Unknown
Apparent Right ascension
Unknown
Apparent Declination
Unknown
Sunlit
N/A
Visualization observer readout
Local Sidereal Time
14:12:49
Azimuth
Unknown
Elevation
Unknown
Doppler factor
Unknown
Orbital elements
Apogee altitude
1,259.901 km
Perigee altitude
1,108.525 km
Semi-major axis
7,562.35 km
Eccentricity
0.01001
Inclination
82.623°
RAAN
334.2191°
Arg. of periapsis
220.9782°
True anomaly
139.13388°
Mean anomaly
138.3792°
Eccentric anomaly
138.75724°
Mean motion
3.30033 °/min
Orbital period
109.08 mins
BSTAR
0.020505
Loading maneuver chart data...
Computing Atmospheric mass density...
Loading historical data...
Loading historical data...
Loading historical data...
Loading historical data...
Loading historical data...
Loading historical data...
Loading historical data...

Documentation

Showing up to 5 results
|